Weather History for Shanghai Hongqiao, SH

Change the Weather History Date:

Monday, August 12, 2013

  Actual Average Record
Temperature  
Mean Temperature 92 °F -  
Max Temperature 100 °F 86 °F 104 °F (2002)
Min Temperature 84 °F 73 °F 69 °F (2001)
Cooling Degree Days 27    
Growing Degree Days 42 (Base 50)    
Moisture  
Dew Point 72 °F    
Average Humidity 58    
Maximum Humidity 79    
Minimum Humidity 31    
Precipitation  
Precipitation 0.00 in 0.19 in - ()
Sea Level Pressure  
Sea Level Pressure 29.74 in    
Wind  
Wind Speed 11 mph ()    
Max Wind Speed 18 mph    
Max Gust Speed -    
Averages and records for this station are not official NWS values.
T = Trace of Precipitation, MM = Missing Value Source: Averaged Metar Reports

Daily Weather History Graph

Daily Weather History Graph

Search for Another Location

Airport:

Trip Planner

Search our weather history database for the weather conditions in past years. The results will help you decide how hot, cold, wet, or windy it might be!

Date:

Astronomy

Aug. 12, 2013 Rise Set
Actual Time 5:18 AM CST 6:40 PM CST
Civil Twilight 4:52 AM CST 7:06 PM CST
Nautical Twilight 4:21 AM CST 7:36 PM CST
Astronomical Twilight 3:49 AM CST 8:08 PM CST
Moon 10:07 AM CST (8/12) 9:37 PM CST (8/12)
Length of Visible Light 14h 13m
Length of Day
13h 22m
Waxing Crescent, 26% of the Moon is Illuminated
Aug 12
Waxing Crescent
Aug 14
First Quarter
Aug 21
Full
Aug 28
Last Quarter
Sep 5
New

Hourly Weather History & Observations

Time (CST) Temp. Heat Index Dew Point Humidity Pressure Visibility Wind Dir Wind Speed Gust Speed Precip Events Conditions
12:00 AM 84.2 °F 94.1 °F 77.0 °F 79% 29.74 in - SSE 13.4 mph - N/A   Clear
12:30 AM 84.2 °F 94.1 °F 77.0 °F 79% 29.74 in - SSE 11.2 mph - N/A   Clear
1:00 AM 84.2 °F 92.3 °F 75.2 °F 74% 29.74 in - SE 13.4 mph - N/A   Clear
1:30 AM 84.2 °F 92.3 °F 75.2 °F 74% 29.74 in - SSE 13.4 mph - N/A   Clear
2:00 AM 84.2 °F 92.3 °F 75.2 °F 74% 29.74 in - SE 13.4 mph - N/A   Clear
2:30 AM 84.2 °F 90.9 °F 73.4 °F 70% 29.74 in - SSE 11.2 mph - N/A   Clear
3:00 AM 84.2 °F 92.3 °F 75.2 °F 74% 29.74 in - SSE 11.2 mph - N/A   Clear
3:30 AM 84.2 °F 90.9 °F 73.4 °F 70% 29.74 in - SSE 13.4 mph - N/A   Clear
4:00 AM 84.2 °F 90.9 °F 73.4 °F 70% 29.74 in - SSE 11.2 mph - N/A   Clear
4:30 AM 84.2 °F 90.9 °F 73.4 °F 70% 29.74 in - SSE 11.2 mph - N/A   Clear
5:00 AM 84.2 °F 90.9 °F 73.4 °F 70% 29.74 in - SSE 11.2 mph - N/A   Clear
5:30 AM 84.2 °F 90.9 °F 73.4 °F 70% 29.74 in - SSE 6.7 mph - N/A   Clear
6:00 AM 84.2 °F 90.9 °F 73.4 °F 70% 29.77 in - SSE 8.9 mph - N/A   Clear
6:30 AM 86.0 °F 93.4 °F 73.4 °F 66% 29.77 in - SSE 8.9 mph - N/A   Clear
7:00 AM 86.0 °F 91.8 °F 71.6 °F 62% 29.77 in - SSE 11.2 mph - N/A   Clear
7:30 AM 87.8 °F 93.8 °F 71.6 °F 58% 29.77 in - South 11.2 mph - N/A   Clear
8:00 AM 89.6 °F 96.2 °F 71.6 °F 55% 29.77 in - South 11.2 mph - N/A   Clear
8:30 AM 91.4 °F 98.4 °F 71.6 °F 52% 29.77 in - South 11.2 mph - N/A   Clear
9:00 AM 93.2 °F 100.5 °F 71.6 °F 49% 29.77 in - South 11.2 mph - N/A   Clear
9:30 AM 93.2 °F 100.5 °F 71.6 °F 49% 29.77 in - South 11.2 mph - N/A   Clear
10:00 AM 95.0 °F 101.3 °F 69.8 °F 44% 29.77 in - South 13.4 mph - N/A   Clear
10:30 AM 95.0 °F 101.3 °F 69.8 °F 44% 29.77 in - SSE 11.2 mph - N/A   Clear
11:00 AM 96.8 °F 103.1 °F 69.8 °F 41% 29.77 in - South 11.2 mph - N/A   Clear
11:30 AM 96.8 °F 103.1 °F 69.8 °F 41% 29.74 in - South 11.2 mph - N/A   Clear
12:00 PM 96.8 °F 105.1 °F 71.6 °F 44% 29.74 in - South 11.2 mph - N/A   Clear
12:30 PM 96.8 °F 103.1 °F 69.8 °F 41% 29.74 in - Variable 13.4 mph - N/A   Clear
1:00 PM 98.6 °F 105.5 °F 69.8 °F 39% 29.74 in - SE 8.9 mph - N/A   Clear
1:30 PM 98.6 °F 105.5 °F 69.8 °F 39% 29.74 in - SSE 8.9 mph - N/A   Clear
2:00 PM 98.6 °F 102.8 °F 66.2 °F 35% 29.74 in - ESE 11.2 mph - N/A   Clear
2:30 PM 100.4 °F 103.6 °F 64.4 °F 31% 29.71 in - SSE 8.9 mph - N/A   Clear
3:00 PM 98.6 °F 101.0 °F 64.4 °F 32% 29.74 in - SSE 8.9 mph - N/A   Clear
3:30 PM 98.6 °F 104.1 °F 68.0 °F 37% 29.74 in - SSE 11.2 mph - N/A   Clear
4:00 PM 96.8 °F 101.8 °F 68.0 °F 39% 29.74 in - SE 11.2 mph - N/A   Clear
4:30 PM 96.8 °F 103.1 °F 69.8 °F 41% 29.71 in - SE 13.4 mph - N/A   Clear
5:00 PM 95.0 °F 101.3 °F 69.8 °F 44% 29.71 in - SE 13.4 mph - N/A   Clear
5:30 PM 93.2 °F 102.4 °F 73.4 °F 52% 29.71 in - ESE 13.4 mph - N/A   Clear
6:00 PM 91.4 °F 100.1 °F 73.4 °F 55% 29.71 in - SE 13.4 mph - N/A   Clear
6:30 PM 89.6 °F 98.2 °F 73.4 °F 59% 29.74 in - SE 15.7 mph - N/A   Clear
7:00 PM 89.6 °F 99.8 °F 75.2 °F 62% 29.74 in - ESE 11.2 mph - N/A   Clear
7:30 PM 87.8 °F 97.6 °F 75.2 °F 66% 29.74 in - SE 13.4 mph - N/A   Clear
8:00 PM 87.8 °F 97.6 °F 75.2 °F 66% 29.74 in - SE 15.7 mph - N/A   Clear
8:30 PM 86.0 °F 95.1 °F 75.2 °F 70% 29.74 in - SE 11.2 mph - N/A   Clear
9:00 PM 86.0 °F 95.1 °F 75.2 °F 70% 29.74 in - SE 17.9 mph - N/A   Clear
9:30 PM 86.0 °F 95.1 °F 75.2 °F 70% 29.74 in - SE 17.9 mph - N/A   Clear
10:00 PM 86.0 °F 95.1 °F 75.2 °F 70% 29.74 in - SE 13.4 mph - N/A   Clear
10:30 PM 86.0 °F 95.1 °F 75.2 °F 70% 29.74 in - SSE 15.7 mph - N/A   Clear
11:00 PM 84.2 °F 92.3 °F 75.2 °F 74% 29.74 in - SSE 15.7 mph - N/A   Clear
11:30 PM 84.2 °F 92.3 °F 75.2 °F 74% 29.74 in - SE 13.4 mph - N/A   Clear